Location: Holbach
(51.5399°N, 10.6036°E)
Time: 22:33:23
(UTC+00:00)

Cosmos 1092 Rocket - Pass Details

Date: 20 June 2021
Orbit: 955 x 994 km, 82.9° (Epoch: 28 July)

Event Time Altitude Azimuth Distance (km) Brightness Sun altitude
Exits shadow 23:51:33 10° 144° (SE) 2,719 5.9 -14.7°
Reaches altitude 10° 23:51:40 10° 143° (SE) 2,681 5.9 -14.7°
Maximum altitude 23:56:53 30° 85° (E) 1,640 5.3 -14.6°
Drops below altitude 10° 00:02:07 10° 26° (NNE) 2,702 7.6 -14.4°
Sets 00:04:54 0° 17° (NNE) 3,656 8.9 -14.4°
